Location: N�rnberg
(49.4489°N, 11.0797°E)
Time: 23:00:06
(UTC+01:00)

N. Korean satellite - Visible Passes

Search period start: 22 November 2017 00:00
Search period end: 02 December 2017 00:00
Orbit: 460 x 514 km, 97.2° (Epoch: 22 November)

Date Brightness Start Highest point End Pass type
(mag) Time Alt. Az. Time Alt. Az. Time Alt. Az.
22 Nov 9.6 06:18:39 10° NE 06:21:34 21° E 06:24:30 10° SE visible
22 Nov 8.1 16:59:49 10° ESE 17:02:06 16° ENE 17:04:24 10° NNE visible
22 Nov 7.7 18:31:53 10° S 18:35:17 45° W 18:38:46 10° NNW visible
23 Nov 10.1 05:56:16 10° ENE 05:57:52 12° E 05:59:29 10° ESE visible
23 Nov 6.5 18:08:12 10° SSE 18:11:45 88° WSW 18:15:23 10° NNW visible
24 Nov 6.7 17:44:52 10° SSE 17:48:17 48° ENE 17:51:49 10° N visible
24 Nov 9.8 19:20:08 10° WSW 19:22:08 14° W 19:24:09 10° NW visible
25 Nov 8.4 06:41:14 10° NNE 06:44:45 37° E 06:48:17 10° SSE visible
25 Nov 7.5 17:21:51 10° SE 17:24:55 27° ENE 17:28:02 10° N visible
25 Nov 8.9 18:55:26 10° SSW 18:58:25 25° W 19:01:29 10° NW visible
26 Nov 9.5 06:18:11 10° NE 06:21:07 21° E 06:24:03 10° SE visible
26 Nov 8.1 16:59:18 10° ESE 17:01:37 16° ENE 17:03:58 10° NNE visible
26 Nov 7.7 18:31:21 10° S 18:34:47 46° W 18:38:19 10° NNW visible
27 Nov 10.1 05:55:46 10° ENE 05:57:24 12° E 05:59:01 10° ESE visible
27 Nov 6.5 18:07:39 10° SSE 18:11:14 88° WSW 18:14:56 10° NNW visible
28 Nov 7.1 07:04:03 10° NNE 07:07:50 69° ESE 07:11:35 10° S visible
28 Nov 6.7 17:44:18 10° SSE 17:47:47 48° ENE 17:51:20 10° N visible
28 Nov 9.8 19:19:32 10° SW 19:21:35 15° W 19:23:42 10° NW visible
29 Nov 8.4 06:40:43 10° NNE 06:44:15 37° E 06:47:46 10° SSE visible
29 Nov 7.5 17:21:17 10° SE 17:24:22 27° ENE 17:27:32 10° N visible
29 Nov 8.9 18:54:50 10° SSW 18:57:53 25° W 19:00:59 10° NW visible
30 Nov 9.5 06:17:38 10° NE 06:20:35 21° E 06:23:31 10° SE visible
30 Nov 8.1 16:58:41 10° ESE 17:01:03 17° ENE 17:03:27 10° NNE visible
30 Nov 7.6 18:30:45 10° S 18:34:14 46° W 18:37:48 10° NNW visible
01 Dec 10.1 05:55:15 10° ENE 05:56:51 12° E 05:58:27 10° ESE visible
01 Dec 6.5 18:07:03 10° SSE 18:10:40 89° WSW 18:14:22 10° NNW visible
